Wind_Speed
69 76 80 77 73 71 69 72 71 64 58 56 55 54 51 50 47 44 37 35 34 31 27 27 30 41 43 48 43 40 37 36 31 28 28 25 25 22 21 19 18 17 14 14 15
68 64 70 72 68 66 64 69 68 62 59 55 54 55 53 52 48 46 44 39 37 35 34 28 31 39 49 49 45 43 39 37 33 31 30 28 27 25 23 21 19 18 16 16 17
59 57 62 67 69 65 56 64 63 63 60 56 51 56 55 53 52 49 46 43 43 39 39 33 31 34 47 50 48 44 38 40 36 34 33 32 29 27 26 23 23 22 20 17 18
52 52 50 62 57 62 59 56 54 53 57 55 55 56 55 52 51 51 48 46 39 42 40 34 31 36 31 50 50 48 42 43 41 38 36 32 32 29 25 25 24 23 20 19 19
60 55 50 50 57 64 61 57 54 54 53 53 55 55 53 48 52 51 50 53 48 41 42 34 33 32 34 40 54 51 50 45 44 40 39 37 32 32 29 28 26 25 23 21 19
52 61 57 53 56 57 63 56 53 50 50 52 53 54 56 52 53 51 51 50 54 50 42 41 35 31 43 32 46 48 51 51 46 44 43 39 36 34 32 30 30 28 25 22 22
53 55 50 56 60 61 57 59 57 54 46 47 46 44 53 52 49 48 51 49 50 54 48 41 39 36 42 44 32 38 47 54 56 48 45 44 42 38 38 34 33 30 28 25 23
51 49 51 57 60 64 63 60 56 57 51 49 44 43 46 54 53 49 49 48 49 50 53 42 39 40 43 43 38 30 41 49 50 51 50 49 42 40 40 36 36 32 29 27 25
54 50 51 50 60 66 67 67 62 57 56 56 46 43 46 48 50 54 48 47 48 50 53 48 43 40 40 43 42 24 38 43 49 52 53 51 44 44 43 40 38 34 32 30 27
47 50 49 53 57 66 69 70 67 68 63 58 54 49 44 44 47 52 53 44 48 50 51 53 52 43 44 51 43 40 29 38 48 56 56 53 46 46 44 42 39 38 35 31 29
49 45 39 49 62 67 72 75 71 68 55 53 52 50 48 48 49 51 55 51 48 49 49 51 54 46 43 45 38 40 29 32 43 59 57 53 48 46 46 45 44 40 36 33 33
49 49 44 42 55 65 67 68 64 55 58 54 55 54 55 54 51 51 53 55 50 45 50 52 50 48 45 46 35 33 32 34 54 60 58 53 50 50 51 48 44 41 39 37 37
50 52 45 40 49 58 64 65 66 61 57 62 64 62 60 59 55 53 51 52 54 48 48 48 54 51 49 50 37 31 34 31 59 60 58 55 54 55 54 52 50 48 43 43 39
49 50 49 49 49 53 59 57 66 63 60 62 62 59 59 60 60 59 55 56 54 51 51 52 56 53 50 52 45 32 29 41 57 52 59 58 59 58 56 54 52 47 46 42 40
55 51 48 47 46 53 58 55 59 66 61 60 58 57 58 58 55 60 58 56 53 52 52 52 59 57 50 51 55 35 39 49 57 55 53 59 61 60 59 56 53 48 46 43 41
60 60 54 52 54 44 52 60 62 61 68 64 63 62 61 58 58 51 54 57 55 54 52 52 52 54 53 44 47 47 48 50 52 57 60 59 61 61 60 56 51 48 46 43 43
68 63 59 59 53 50 53 60 67 67 59 65 63 63 64 62 61 57 56 58 56 54 56 53 55 61 46 46 44 43 47 48 51 59 63 62 65 66 62 59 55 51 49 49 48
71 57 54 52 54 53 54 53 58 56 53 56 63 62 64 62 59 58 57 57 54 53 50 53 58 60 54 44 40 46 50 50 53 55 59 69 71 69 64 60 56 52 51 50 49
72 64 54 60 56 63 57 54 57 55 49 56 59 68 66 60 58 61 62 60 58 56 51 54 57 54 51 45 46 49 52 49 54 53 59 64 69 64 59 57 53 51 50 49 46
66 64 62 65 61 63 67 60 55 51 50 53 50 58 67 64 63 60 56 62 63 61 51 51 54 53 49 46 49 51 47 52 56 53 56 63 66 66 58 54 51 51 47 46 46
72 71 65 64 63 72 66 54 53 55 52 54 51 52 56 63 63 61 54 58 61 63 55 53 53 53 46 47 46 51 54 54 51 56 56 58 62 55 53 46 47 47 46 44 45
70 70 51 74 67 74 70 64 53 54 52 52 49 45 48 51 60 67 59 52 54 58 56 54 55 55 48 46 45 48 49 46 51 54 53 60 60 56 48 42 41 42 42 44 46
64 62 65 66 73 76 69 63 59 52 52 45 46 46 44 48 49 55 56 56 55 60 54 55 58 56 51 49 45 46 44 47 48 47 51 51 49 48 42 38 38 40 39 38 39
69 61 53 67 63 68 59 62 56 52 53 50 47 45 44 45 50 50 55 54 53 55 55 52 52 54 52 49 47 51 48 47 45 45 49 50 45 42 39 35 34 35 33 40 45
71 74 50 66 68 76 66 58 54 49 48 48 44 45 41 46 53 52 56 53 53 55 55 50 52 51 50 46 46 43 39 39 43 45 51 34 45 36 33 33 36 37 37 41 44
62 81 50 52 64 61 66 59 53 45 43 46 42 43 44 38 46 51 51 56 58 56 54 51 53 50 51 49 47 48 50 45 45 41 39 47 45 39 39 42 41 39 39 41 43
62 69 59 64 61 64 66 50 48 53 43 40 42 41 40 41 39 45 46 43 48 52 53 52 50 52 53 52 52 54 51 49 44 41 34 37 28 38 43 41 40 42 46 45 42
Wind_Direction
233 233 226 224 223 223 225 223 224 222 215 217 211 215 216 219 215 213 206 217 223 229 220 248 222 205 210 213 213 219 224 222 220 209 207 201 204 194 177 177 169 165 161 156 143
237 237 234 231 227 224 225 225 226 225 220 214 211 214 217 218 219 212 205 211 218 224 223 225 244 220 214 214 214 216 220 221 219 208 207 203 205 196 184 180 173 168 169 164 152
225 234 235 232 230 229 228 226 226 226 224 218 210 212 217 220 219 215 211 207 216 226 223 224 238 231 207 213 210 217 219 222 216 214 208 204 208 202 195 186 177 176 175 176 163
215 220 226 232 225 228 229 229 226 225 224 222 216 210 217 219 224 217 210 204 209 220 226 219 234 250 241 215 213 219 220 222 219 212 211 205 209 207 196 198 184 181 182 182 177
213 220 219 220 229 229 227 228 228 226 224 224 221 216 216 222 225 221 216 208 206 210 216 221 229 237 257 224 215 219 220 219 225 213 213 208 207 207 201 200 193 189 184 189 191
198 213 217 214 213 222 231 222 222 224 226 223 222 222 213 220 223 224 221 217 214 213 214 222 225 227 250 216 216 219 221 226 220 217 215 212 206 211 207 205 199 193 189 195 197
197 201 207 209 208 202 212 215 226 221 217 222 219 219 220 219 228 226 224 221 219 220 216 224 227 232 252 252 238 227 221 231 228 216 215 213 207 208 208 202 203 198 195 198 200
191 194 207 207 204 198 198 205 209 218 215 220 214 212 220 219 222 226 224 224 224 224 215 217 222 228 230 248 251 249 217 229 222 216 213 215 209 209 210 205 204 202 201 202 203
189 199 206 205 199 196 195 194 196 201 208 217 208 212 216 220 221 227 227 224 224 225 224 221 224 220 234 248 252 212 219 228 231 218 216 218 209 210 210 206 205 205 205 208 209
207 195 204 205 200 195 196 195 193 193 200 210 215 206 208 215 219 227 229 228 228 225 226 224 222 221 231 247 249 248 254 235 235 217 216 217 211 211 211 207 206 206 209 211 210
189 188 202 198 199 195 199 198 195 191 196 216 226 221 219 209 208 218 223 228 229 229 228 229 223 225 235 246 249 245 255 241 230 217 215 217 212 212 210 209 208 208 209 210 211
176 184 190 195 199 200 200 203 199 201 203 200 207 205 210 208 210 211 218 227 231 233 232 229 225 227 228 237 231 241 255 244 224 213 218 217 215 214 211 210 209 210 212 213 215
176 183 191 198 207 203 201 204 203 203 205 203 199 203 203 205 206 210 215 219 226 231 234 233 224 229 229 233 225 232 251 243 223 213 221 219 215 215 214 211 210 212 212 214 213
179 192 196 195 199 201 202 207 205 207 211 210 212 211 207 208 208 211 211 217 219 226 228 228 228 228 227 232 229 219 228 222 210 216 221 223 218 217 218 215 215 213 215 215 219
181 186 183 200 203 199 203 208 208 205 212 208 213 215 216 215 211 208 214 216 217 221 229 233 230 228 225 232 234 216 218 217 213 214 227 224 226 216 219 219 221 220 217 220 221
191 184 194 200 203 195 202 206 213 206 210 209 207 210 214 216 217 217 219 219 217 217 221 227 235 235 234 228 224 207 213 217 215 216 225 225 230 221 224 223 225 226 225 225 227
194 191 187 198 206 205 208 214 208 211 212 209 209 210 212 214 216 220 217 218 222 222 223 227 236 238 239 232 230 223 217 222 223 224 229 222 228 222 223 226 226 227 227 227 228
197 187 191 197 203 203 209 210 209 210 217 215 214 214 214 214 218 223 220 221 223 224 223 234 234 242 241 239 237 238 224 230 238 242 237 225 226 228 226 228 229 229 232 234 234
190 196 195 205 208 212 215 217 216 211 217 220 222 216 216 219 222 223 222 224 228 224 223 233 235 236 232 223 217 226 230 234 236 239 236 233 229 233 234 236 236 235 237 239 240
190 193 198 204 203 210 215 218 219 218 219 220 223 220 221 224 223 224 225 227 227 227 222 227 229 228 224 221 223 226 232 232 232 234 238 237 234 232 234 234 238 239 240 243 245
188 191 200 204 213 214 209 205 214 217 220 220 220 219 223 226 227 232 232 224 227 229 218 222 226 226 222 223 225 231 229 230 233 237 238 241 237 232 240 237 240 242 242 244 245
192 190 201 198 204 208 210 214 216 213 219 222 220 220 224 227 227 229 233 232 228 226 217 220 224 226 223 224 226 231 233 238 242 240 241 242 241 237 241 242 238 241 243 244 246
200 194 203 201 204 205 208 214 218 218 213 219 218 221 225 229 224 224 225 226 225 226 221 220 225 225 223 221 222 230 237 239 239 243 243 248 245 240 244 249 243 243 245 241 241
195 195 199 208 210 209 212 212 210 215 220 221 220 222 227 220 216 221 222 223 223 222 223 223 230 229 231 232 232 232 233 234 229 237 245 247 243 237 239 245 250 248 245 242 242
196 200 206 204 209 212 215 210 210 208 211 213 214 214 221 218 220 220 216 219 223 224 225 224 225 226 226 230 231 232 238 248 246 244 243 247 248 239 241 247 247 246 241 241 245
206 195 200 199 204 210 213 213 213 213 219 216 215 217 221 223 225 224 226 225 225 223 225 229 230 229 228 227 231 232 235 239 239 238 240 246 240 240 228 236 239 243 242 236 237
205 207 212 214 199 205 210 209 212 220 222 225 221 225 229 229 224 220 223 227 228 228 225 229 230 229 230 230 230 232 236 239 242 242 248 254 261 249 239 237 243 245 243 241 241
Height
5618 5630 5640 5651 5661 5672 5682 5692 5702 5713 5720 5730 5740 5750 5756 5763 5770 5776 5780 5783 5790 5794 5795 5801 5803 5810 5814 5818 5823 5827 5831 5835 5843 5846 5849 5852 5855 5856 5855 5859 5860 5862 5863 5865 5864
5607 5619 5632 5644 5654 5665 5673 5683 5694 5705 5713 5722 5731 5739 5749 5757 5763 5770 5774 5778 5784 5790 5793 5795 5799 5804 5810 5816 5821 5823 5828 5834 5839 5843 5847 5849 5853 5854 5855 5858 5860 5862 5864 5865 5865
5600 5607 5620 5632 5646 5657 5666 5676 5686 5697 5707 5716 5724 5731 5739 5748 5757 5762 5769 5776 5780 5784 5787 5794 5795 5799 5804 5809 5815 5819 5825 5829 5834 5840 5843 5846 5850 5853 5853 5857 5858 5861 5863 5865 5866
5593 5599 5607 5620 5636 5647 5658 5668 5679 5689 5698 5708 5717 5723 5733 5742 5750 5756 5763 5769 5774 5779 5783 5787 5791 5793 5798 5803 5811 5818 5821 5822 5829 5834 5839 5844 5846 5851 5853 5855 5857 5860 5863 5864 5866
5582 5591 5599 5610 5623 5637 5649 5661 5672 5681 5692 5701 5710 5718 5724 5732 5740 5750 5758 5763 5768 5774 5779 5782 5785 5788 5793 5799 5805 5811 5812 5818 5825 5829 5834 5837 5843 5847 5849 5852 5857 5859 5861 5863 5866
5573 5583 5592 5603 5614 5625 5639 5652 5663 5674 5684 5693 5701 5710 5719 5728 5730 5742 5751 5758 5763 5768 5775 5777 5781 5783 5788 5793 5798 5802 5806 5813 5817 5823 5827 5834 5837 5842 5845 5850 5854 5857 5860 5863 5864
5566 5576 5585 5596 5606 5617 5628 5643 5653 5666 5676 5685 5694 5702 5713 5721 5724 5733 5743 5750 5754 5761 5767 5771 5776 5779 5784 5786 5789 5793 5801 5806 5811 5817 5822 5827 5831 5837 5841 5844 5851 5854 5858 5861 5864
5562 5568 5580 5589 5599 5610 5620 5634 5643 5657 5667 5677 5686 5694 5705 5710 5719 5727 5736 5744 5747 5753 5761 5765 5767 5772 5777 5780 5786 5789 5794 5798 5804 5811 5816 5819 5828 5833 5837 5842 5847 5850 5854 5858 5862
5555 5564 5573 5582 5592 5603 5613 5624 5635 5646 5656 5668 5677 5685 5694 5705 5716 5723 5731 5738 5741 5747 5754 5758 5765 5767 5770 5775 5781 5784 5791 5792 5799 5806 5811 5814 5824 5826 5831 5837 5842 5847 5850 5854 5858
5549 5559 5566 5575 5585 5594 5606 5615 5624 5633 5641 5654 5668 5677 5689 5701 5707 5717 5723 5730 5734 5739 5747 5753 5758 5760 5764 5771 5777 5782 5784 5786 5793 5799 5804 5808 5818 5822 5828 5832 5838 5841 5846 5850 5855
5545 5553 5562 5568 5577 5586 5593 5601 5611 5621 5635 5657 5669 5674 5681 5689 5698 5706 5714 5721 5726 5733 5742 5747 5751 5760 5764 5766 5768 5771 5777 5779 5785 5791 5798 5805 5813 5817 5822 5826 5829 5835 5841 5845 5850
5539 5547 5555 5563 5572 5580 5592 5604 5616 5632 5631 5643 5655 5664 5672 5679 5689 5695 5704 5714 5721 5731 5733 5740 5751 5753 5752 5759 5761 5765 5771 5774 5777 5784 5791 5798 5806 5810 5814 5819 5825 5829 5833 5839 5842
5531 5538 5549 5558 5565 5575 5589 5601 5610 5623 5630 5637 5639 5651 5660 5669 5678 5688 5696 5705 5713 5720 5727 5737 5745 5743 5746 5753 5756 5758 5767 5769 5774 5779 5783 5790 5796 5801 5806 5811 5816 5819 5825 5829 5837
5524 5536 5544 5553 5562 5571 5582 5594 5601 5611 5619 5627 5634 5644 5652 5659 5666 5677 5683 5694 5703 5715 5718 5724 5729 5734 5741 5747 5751 5752 5760 5761 5764 5772 5776 5781 5787 5792 5799 5805 5808 5815 5820 5826 5831
5520 5530 5533 5550 5560 5567 5580 5582 5590 5601 5607 5618 5627 5636 5646 5655 5663 5669 5677 5684 5696 5704 5714 5725 5723 5729 5733 5745 5742 5748 5750 5752 5756 5762 5768 5773 5776 5787 5791 5798 5803 5810 5816 5821 5825
5512 5523 5530 5542 5552 5563 5568 5574 5582 5587 5597 5607 5616 5627 5639 5650 5658 5662 5670 5678 5686 5691 5701 5708 5713 5718 5731 5731 5735 5736 5739 5745 5747 5752 5755 5768 5770 5779 5786 5794 5801 5807 5813 5816 5820
5505 5517 5522 5535 5547 5553 5559 5564 5572 5581 5595 5604 5612 5623 5632 5640 5647 5654 5662 5669 5679 5686 5696 5703 5709 5716 5719 5722 5727 5730 5735 5737 5739 5743 5753 5759 5760 5768 5777 5784 5791 5798 5803 5807 5810
5498 5508 5517 5531 5540 5545 5550 5557 5565 5581 5590 5598 5608 5616 5624 5630 5638 5649 5653 5659 5670 5679 5687 5696 5702 5708 5713 5716 5723 5726 5725 5728 5734 5740 5744 5748 5749 5755 5771 5777 5783 5790 5796 5799 5805
5492 5501 5513 5520 5531 5537 5541 5549 5563 5573 5581 5589 5597 5604 5613 5623 5633 5639 5646 5659 5665 5672 5678 5687 5696 5702 5703 5707 5712 5714 5716 5730 5728 5732 5736 5739 5750 5755 5767 5774 5780 5785 5790 5794 5799
5482 5492 5506 5513 5524 5527 5533 5548 5557 5565 5575 5583 5590 5599 5606 5617 5623 5631 5640 5653 5657 5667 5671 5680 5685 5691 5694 5699 5703 5708 5720 5719 5719 5723 5726 5732 5737 5747 5755 5764 5770 5776 5783 5787 5791
5472 5483 5498 5505 5515 5513 5524 5541 5550 5559 5568 5577 5585 5592 5601 5609 5618 5627 5636 5641 5650 5659 5661 5668 5678 5682 5686 5691 5699 5703 5704 5709 5715 5717 5720 5724 5731 5743 5748 5758 5763 5767 5772 5776 5780
5462 5477 5487 5494 5497 5501 5520 5534 5542 5549 5557 5566 5575 5584 5592 5602 5608 5618 5626 5637 5643 5649 5651 5659 5667 5671 5679 5685 5691 5694 5700 5705 5706 5713 5713 5716 5723 5734 5741 5748 5752 5757 5761 5765 5768
5452 5468 5477 5483 5484 5497 5513 5522 5533 5542 5551 5560 5569 5575 5584 5592 5600 5609 5619 5626 5633 5640 5642 5653 5654 5661 5667 5675 5683 5685 5691 5696 5700 5703 5706 5712 5718 5727 5733 5738 5742 5747 5750 5753 5757
5448 5458 5468 5469 5481 5498 5504 5514 5524 5534 5544 5553 5561 5567 5575 5581 5590 5600 5609 5616 5623 5630 5635 5640 5645 5654 5663 5674 5677 5679 5683 5688 5692 5694 5699 5701 5709 5718 5726 5728 5731 5735 5739 5743 5747
5438 5447 5455 5462 5474 5487 5499 5512 5517 5526 5536 5544 5552 5559 5568 5574 5582 5589 5597 5606 5613 5620 5625 5629 5636 5645 5654 5661 5666 5673 5677 5680 5681 5690 5690 5703 5699 5712 5719 5720 5722 5725 5729 5734 5737
5431 5440 5449 5461 5469 5482 5490 5500 5513 5522 5531 5538 5545 5553 5560 5568 5577 5584 5591 5599 5603 5612 5617 5623 5631 5638 5644 5650 5655 5660 5664 5667 5674 5680 5683 5685 5691 5700 5706 5706 5710 5714 5718 5722 5726
5418 5429 5442 5451 5463 5473 5483 5497 5509 5517 5525 5532 5540 5547 5555 5562 5571 5579 5585 5593 5599 5604 5609 5615 5621 5627 5635 5639 5643 5644 5656 5662 5668 5673 5680 5679 5693 5694 5698 5700 5701 5703 5705 5711 5717